Date,TemperatureHighF,TemperatureAvgF,TemperatureLowF,DewpointHighF,DewpointAvgF,DewpointLowF,HumidityHigh,HumidityAvg,HumidityLow,PressureMaxIn,PressureMinIn,WindSpeedMaxMPH,WindSpeedAvgMPH,GustSpeedMaxMPH,PrecipitationSumIn
2013-1-1,45.1,40.2,36.0,44.3,37.6,29.1,99,91,75,30.36,30.07,16,7,21,0.00
2013-1-2,40.1,35.5,31.8,32.0,29.6,28.0,89,79,72,30.41,30.31,9,4,14,0.00
2013-1-3,51.3,40.8,29.7,33.0,29.7,27.4,92,67,44,30.52,30.39,11,4,16,0.00
2013-1-4,50.0,44.2,38.8,34.9,32.1,29.8,78,63,49,30.58,30.41,7,2,8,0.00
2013-1-5,51.8,45.7,39.9,41.2,39.1,29.8,96,78,64,30.46,30.25,9,4,16,0.00
2013-1-6,55.4,45.1,34.0,39.8,30.9,24.9,98,61,32,30.46,30.33,11,4,15,0.00
2013-1-7,54.9,46.3,34.5,35.6,30.6,21.9,65,55,41,30.39,30.14,12,4,15,0.00
2013-1-8,48.9,48.0,46.8,48.5,43.2,33.6,99,85,56,30.15,30.01,10,5,16,0.93
2013-1-9,56.7,53.8,48.9,56.4,53.4,48.7,99,99,97,30.17,29.94,25,9,35,0.34
2013-1-10,61.7,55.5,50.9,57.1,51.4,46.9,99,87,67,30.02,29.92,17,7,23,0.13
2013-1-11,71.6,61.6,50.9,64.7,51.6,45.0,96,71,42,29.99,29.77,17,8,26,0.04
2013-1-12,66.6,54.3,35.8,66.3,52.3,30.2,99,93,79,30.02,29.69,22,8,32,0.15
2013-1-13,41.7,36.2,30.7,30.5,23.7,17.7,82,61,48,30.35,30.00,17,10,26,0.00
2013-1-14,44.8,36.0,28.0,27.2,20.7,15.0,65,54,40,30.42,30.26,14,7,20,0.00
2013-1-15,37.9,34.8,29.8,30.3,25.4,18.6,96,69,52,30.32,30.21,15,7,21,0.00
2013-1-16,48.6,39.1,26.4,27.1,20.5,15.3,76,50,29,30.36,30.20,12,3,16,0.00
2013-1-19,64.4,57.8,53.4,48.1,46.5,44.7,75,67,49,30.25,30.16,11,5,15,0.00
2013-1-20,68.5,57.3,44.4,48.4,44.4,38.7,95,65,40,30.25,30.08,11,4,14,0.00
2013-1-21,57.9,49.0,39.7,46.1,33.7,24.6,87,57,41,30.35,30.15,13,5,19,0.00
2013-1-22,65.3,52.3,38.5,50.7,38.8,24.3,77,60,46,30.36,30.19,11,4,14,0.00
2013-1-23,73.4,63.4,52.7,57.7,53.8,49.8,91,72,52,30.29,30.13,15,6,19,0.00
2013-1-24,77.2,65.2,55.4,61.4,56.2,49.3,94,74,53,30.20,30.03,13,5,16,0.00
2013-1-25,67.6,49.3,44.6,51.7,45.1,39.9,99,86,72,30.25,30.05,14,5,20,0.00
2013-1-26,52.9,48.6,45.1,50.6,47.1,40.1,99,94,76,30.27,30.13,11,4,15,0.00
2013-1-27,75.0,62.6,48.9,65.2,57.8,48.7,99,86,58,30.14,29.92,20,8,27,0.00
2013-1-28,77.7,72.3,68.2,67.2,65.2,63.6,91,79,63,30.01,29.83,22,10,30,0.11
2013-1-29,78.6,67.3,55.0,67.5,59.9,31.5,95,78,40,29.85,29.44,22,10,34,0.32
2013-1-30,55.4,48.2,43.0,38.7,26.8,16.5,75,45,25,30.18,29.69,24,10,34,0.25
2013-1-31,70.9,52.7,38.1,31.1,24.1,20.1,64,37,15,30.38,30.09,21,6,31,0.09
2013-2-1,59.7,46.8,30.6,40.0,26.8,15.9,56,46,32,30.46,30.19,17,6,24,0.00
2013-2-2,72.7,59.2,49.6,47.2,38.5,28.8,81,49,25,30.36,30.16,13,6,20,0.01
2013-2-3,73.0,57.9,42.4,42.9,31.0,23.5,80,42,17,30.37,30.00,14,4,17,0.00
2013-2-4,71.8,62.4,56.3,58.0,47.2,26.6,85,60,28,30.01,29.80,16,8,115,0.18
2013-2-5,60.3,58.6,57.4,59.7,58.2,57.1,99,99,97,30.04,30.02,8,4,12,0.17
2013-2-6,74.5,63.6,55.9,64.6,58.9,52.3,99,86,46,30.04,29.86,17,8,23,0.00
2013-2-7,80.2,64.9,54.1,60.5,55.4,38.8,99,75,26,30.15,29.79,22,10,36,0.00
2013-2-8,63.7,53.9,42.6,46.3,34.0,20.2,84,53,19,30.30,30.14,14,6,21,0.00
2013-2-9,59.4,51.5,47.8,58.9,47.8,37.1,99,88,56,30.17,29.75,21,10,27,0.00
2013-2-10,69.3,60.9,52.2,64.3,37.6,21.7,99,52,17,30.05,29.65,26,7,33,0.39
2013-2-11,56.7,52.2,47.5,41.2,33.0,25.9,77,49,35,30.20,30.03,16,7,24,0.00
2013-2-12,49.6,46.9,41.4,49.2,45.5,40.6,99,95,77,30.08,29.88,17,6,22,0.32
2013-2-13,57.7,47.2,39.4,41.5,38.0,33.3,98,73,41,30.20,30.04,17,5,22,0.00
2013-2-14,68.7,55.7,41.7,42.0,36.8,27.9,90,54,23,30.14,30.01,8,3,11,0.00
2013-2-15,53.8,47.5,37.9,39.7,27.8,13.8,73,48,24,30.44,30.13,20,8,27,0.00
2013-2-16,56.8,44.8,32.0,32.1,26.4,21.4,72,50,27,30.47,30.21,11,4,14,0.00
2013-2-17,70.5,57.2,42.8,48.1,33.0,23.0,67,44,17,30.21,29.91,22,9,31,0.00
2013-2-18,77.5,62.2,51.1,58.7,45.7,31.8,85,58,26,30.16,29.75,24,11,33,0.00
2013-2-19,60.8,52.6,42.1,33.2,25.4,18.5,57,37,22,30.37,30.15,15,6,20,0.00
2013-2-20,52.9,44.6,40.8,42.2,38.3,30.4,92,79,42,30.24,29.82,18,10,24,0.10
2013-2-21,67.5,52.4,41.7,51.3,40.1,25.0,99,69,20,29.98,29.62,22,9,36,0.06
2013-2-22,48.4,40.1,31.5,38.8,27.5,20.3,89,61,46,30.22,29.96,14,6,21,0.00
2013-2-23,54.5,43.5,32.2,32.0,27.4,23.8,73,54,35,30.15,29.96,11,4,14,0.00
2013-2-24,69.1,55.6,41.2,45.1,38.0,31.3,76,54,28,29.97,29.61,21,9,27,0.00
2013-2-25,60.6,51.8,39.6,51.9,40.9,28.4,86,68,37,29.70,29.47,26,11,40,0.06
2013-2-26,57.9,47.7,40.5,35.6,33.5,30.2,80,60,36,29.94,29.70,27,11,42,0.01
2013-2-27,56.5,46.9,36.9,34.3,27.5,15.7,86,50,22,30.28,29.91,21,9,28,0.00
2013-2-28,58.1,46.5,35.4,31.4,26.7,17.6,79,50,23,30.34,30.19,21,8,27,0.00
2013-3-1,53.8,44.2,33.3,33.9,29.4,25.7,77,57,36,30.36,30.22,15,6,20,0.00
2013-3-2,54.5,42.8,31.6,30.2,24.0,17.3,75,50,26,30.49,30.27,17,7,23,0.00
2013-3-3,71.1,57.1,42.3,43.9,28.8,19.7,52,35,21,30.27,29.80,24,10,34,0.00
2013-3-4,88.0,69.7,56.5,51.1,43.1,30.8,66,43,13,29.81,29.56,23,10,33,0.00
2013-3-5,62.8,50.6,43.5,45.5,25.4,14.2,71,40,21,30.43,29.81,31,12,45,0.04
2013-3-6,61.9,50.2,37.0,24.7,20.6,15.4,56,33,20,30.51,30.23,11,4,16,0.00
2013-3-7,70.3,59.4,46.6,41.6,24.6,18.1,79,27,15,30.27,30.10,21,9,25,0.00
2013-3-8,64.0,59.3,55.0,58.8,52.7,38.0,97,79,43,30.22,29.99,21,10,27,0.00
2013-3-9,69.6,64.2,59.2,67.2,61.6,56.7,99,91,79,30.00,29.66,23,10,30,0.28
2013-3-10,59.2,51.3,41.7,58.9,40.4,30.4,99,68,49,30.14,29.74,24,9,35,0.24
2013-3-11,59.7,46.6,34.5,33.7,25.9,14.8,87,50,21,30.17,30.02,14,5,21,0.00
2013-3-12,67.1,56.0,44.4,32.6,25.0,19.6,51,31,20,30.34,30.07,13,5,18,0.00
2013-3-13,70.3,58.9,45.1,39.2,33.4,28.5,65,41,22,30.48,30.32,10,4,13,0.00
2013-3-14,77.5,64.9,52.9,47.6,40.5,30.7,58,42,29,30.38,30.17,17,8,24,0.00
2013-3-15,81.5,69.8,58.3,56.1,48.6,39.0,85,51,22,30.19,29.89,20,9,27,0.00
2013-3-16,80.4,71.0,59.4,59.9,55.2,48.2,86,59,44,29.89,29.68,21,11,30,0.00
2013-3-17,72.1,67.7,60.3,63.9,56.3,49.3,90,68,49,29.80,29.67,17,7,26,0.00
2013-3-18,69.3,62.9,57.2,65.4,48.5,36.6,99,61,41,30.04,29.65,19,8,28,0.00
2013-3-19,68.0,59.0,49.3,43.5,37.1,30.8,75,46,31,30.17,29.98,16,7,22,0.00
2013-3-20,67.5,59.5,49.3,37.3,31.1,21.5,62,36,18,30.34,30.06,14,5,18,0.00
2013-3-21,69.8,61.7,53.6,59.8,43.5,27.4,79,52,34,30.06,29.57,21,11,31,0.00
2013-3-22,67.1,53.6,46.4,63.1,51.0,43.8,99,91,65,29.90,29.57,16,7,22,0.00
2013-3-23,54.5,49.9,46.2,51.4,48.6,45.4,99,96,86,29.88,29.69,17,5,24,0.12
2013-3-24,52.3,45.5,39.4,49.2,29.3,17.1,99,56,29,30.23,29.86,29,13,43,0.00
2013-3-25,53.2,43.2,31.6,25.9,18.8,13.2,69,40,22,30.45,30.23,20,7,27,0.00
2013-3-26,58.6,46.5,34.0,24.4,18.9,14.0,52,34,22,30.56,30.33,10,3,13,0.00
2013-3-27,70.3,57.7,43.3,44.6,31.3,19.7,52,37,24,30.35,30.09,21,9,28,0.00
2013-3-28,70.2,63.1,50.7,59.2,53.0,23.4,87,70,34,30.35,30.09,17,9,24,0.00
2013-3-29,77.7,68.4,61.2,60.0,58.5,57.2,89,72,50,30.21,30.02,21,9,26,0.00
2013-3-30,77.9,68.4,57.4,65.4,61.7,57.1,99,81,61,30.12,29.88,17,6,24,0.36
2013-3-31,74.3,68.0,60.1,65.7,58.3,50.1,99,73,45,30.00,29.80,22,6,30,0.00
2013-4-1,79.5,69.1,55.6,53.4,49.1,44.9,83,52,30,30.09,29.93,11,4,14,0.00
2013-4-2,70.7,65.7,52.0,64.7,59.1,45.2,96,80,54,30.05,29.90,21,8,30,0.00
2013-4-3,54.5,48.2,43.7,50.8,46.5,43.2,99,94,74,30.20,29.97,18,7,25,0.61
2013-4-4,51.1,46.5,42.3,44.0,42.4,40.6,99,86,73,30.25,30.16,14,6,23,0.02
2013-4-5,70.2,56.1,39.9,50.6,45.0,39.7,99,70,40,30.29,30.05,11,4,14,0.00
2013-4-6,76.1,66.6,56.8,60.4,53.3,43.9,84,63,44,30.05,29.83,20,9,28,0.00
2013-4-7,73.6,67.9,50.7,63.5,61.2,43.1,90,80,70,30.19,29.73,17,9,23,0.00
2013-4-8,76.1,71.6,66.6,66.9,64.3,60.5,88,78,71,29.77,29.65,21,11,28,0.00
2013-4-9,82.2,74.8,68.4,70.0,66.3,63.6,94,76,57,29.73,29.61,21,11,30,0.00
2013-4-10,75.4,47.6,40.5,70.2,44.8,37.2,99,90,63,30.03,29.70,21,11,29,0.15
2013-4-11,63.3,50.1,40.3,39.5,33.5,27.6,83,55,33,30.03,29.83,15,5,21,0.00
2013-4-12,78.4,63.8,48.7,47.1,41.9,-99.9,79,49,1,30.02,29.87,8,3,11,27.64
2013-4-13,78.6,69.0,57.9,50.2,46.7,42.4,70,46,30,30.02,29.78,17,7,24,0.00
2013-4-14,82.0,71.1,59.7,67.7,59.6,49.0,86,68,50,29.80,29.53,18,8,24,0.00
2013-4-15,87.3,77.6,69.1,69.1,67.7,65.6,97,74,51,29.76,29.61,20,9,27,0.00
2013-4-16,88.0,79.0,72.1,71.2,67.8,65.1,88,70,49,29.90,29.76,21,9,30,0.00
2013-4-17,85.1,78.3,73.2,73.4,70.3,67.3,99,78,57,29.89,29.61,24,12,36,0.00
2013-4-18,77.4,55.4,46.2,73.6,47.4,33.9,99,76,48,30.20,29.55,23,12,33,0.67
2013-4-19,63.7,51.9,39.4,35.9,29.4,21.3,83,47,22,30.32,30.16,19,6,24,0.00
2013-4-20,70.7,61.0,49.5,37.4,30.6,21.9,54,34,16,30.23,30.02,19,7,29,0.00
2013-4-21,72.0,62.2,52.0,50.9,46.8,34.7,75,58,38,30.24,30.07,14,6,20,0.00
2013-4-22,78.8,69.0,57.6,60.7,54.6,46.8,82,61,49,30.13,29.84,20,9,27,0.00
2013-4-23,70.5,54.9,41.9,64.3,51.8,40.4,99,90,67,30.25,29.81,21,9,27,0.01
2013-4-24,62.8,50.3,38.7,41.4,35.4,31.0,98,61,31,30.37,30.22,17,7,24,0.00
2013-4-25,73.6,63.2,50.9,45.8,37.5,29.7,55,40,21,30.37,30.16,16,6,20,0.00
2013-4-26,77.9,68.6,61.0,68.6,57.3,43.7,83,68,45,30.19,29.97,15,8,24,0.00
2013-4-27,74.7,68.9,63.7,68.4,61.1,56.0,96,77,56,30.15,29.98,13,6,21,0.00
2013-4-28,82.8,69.4,56.5,67.0,60.9,55.8,99,76,52,30.06,29.84,11,4,14,0.00
2013-4-29,86.7,76.7,65.5,68.6,62.1,55.1,96,64,35,29.91,29.77,14,6,21,0.00
2013-4-30,82.2,73.4,63.1,65.9,62.8,58.2,95,71,47,29.84,29.73,17,7,23,0.00
2013-5-1,83.5,74.3,66.6,68.9,65.9,61.4,98,77,48,29.97,29.79,16,6,19,0.00
2013-5-2,89.4,52.5,43.3,64.4,47.6,37.2,99,84,73,30.38,29.96,25,12,36,28.32
2013-5-3,66.4,54.3,40.5,37.7,30.1,18.4,89,46,19,30.37,30.05,21,9,30,0.00
2013-5-4,72.5,61.4,49.1,42.2,32.3,19.5,61,37,14,30.06,29.90,24,7,30,0.00
2013-5-5,69.1,58.3,46.6,48.8,42.3,-99.9,80,59,2,30.38,28.64,21,7,120,28.32
2013-5-6,79.2,66.1,51.3,55.1,51.7,47.5,91,62,41,30.14,29.99,11,3,14,0.00
2013-5-7,85.3,75.0,62.2,55.8,53.5,49.7,73,49,30,30.08,29.92,11,5,17,0.00
2013-5-8,86.0,76.8,66.9,60.1,56.0,49.2,70,50,31,30.00,29.85,20,8,27,0.00
2013-5-9,77.9,70.2,67.1,69.4,65.6,58.4,99,86,53,29.99,29.85,17,6,27,0.22
2013-5-10,82.6,72.6,65.1,68.4,63.8,57.1,99,77,46,30.07,29.89,12,4,17,0.00
2013-5-11,81.3,72.0,59.7,60.3,51.8,37.0,94,54,21,30.19,29.98,115,6,115,28.54
2013-5-12,79.7,70.2,60.4,55.4,36.8,25.6,63,32,15,30.29,30.14,16,6,21,0.00
2013-5-13,87.1,74.6,59.4,54.3,46.9,37.8,62,39,25,30.25,30.09,14,5,20,0.00
2013-5-14,86.7,77.1,65.3,63.3,57.4,50.5,80,53,29,30.16,29.97,15,6,27,0.00
2013-5-15,78.1,72.2,62.6,71.4,68.1,61.7,99,88,64,30.05,29.72,26,9,37,0.47
2013-5-16,83.5,72.2,62.8,73.0,67.9,61.9,99,87,68,29.84,29.73,18,6,23,0.02
2013-5-17,91.2,81.5,73.0,75.8,73.1,71.6,99,78,54,29.85,29.75,24,6,30,0.00
2013-5-18,92.7,83.7,73.8,74.9,72.0,69.8,89,69,49,29.89,29.73,18,9,29,0.00
2013-5-19,89.6,82.2,71.6,71.5,69.5,66.5,89,67,52,29.83,29.64,23,11,32,0.00
2013-5-20,90.5,82.6,75.0,72.7,71.1,69.7,88,69,52,29.81,29.63,21,11,32,0.00
2013-5-21,83.3,73.0,61.5,73.2,68.0,60.8,99,85,66,29.90,29.66,24,7,37,0.56
2013-5-22,88.2,73.0,57.2,70.5,60.1,48.1,99,70,27,29.96,29.83,11,3,15,0.02
2013-5-23,86.5,79.3,72.5,74.4,71.6,65.9,99,78,64,30.06,29.88,14,6,21,0.00
2013-5-24,86.4,79.0,68.0,75.1,72.0,64.7,99,80,61,30.22,29.99,18,6,27,0.33
2013-5-25,84.6,73.7,67.6,73.8,69.7,66.3,99,88,60,30.21,30.04,17,6,27,0.22
2013-5-26,88.2,79.3,71.4,74.1,71.6,70.0,99,79,57,30.08,29.91,16,7,23,0.15
2013-5-27,87.3,80.2,72.9,71.6,70.2,68.4,90,73,55,29.99,29.77,20,9,28,0.00
2013-5-28,85.6,80.3,73.4,71.6,68.8,65.9,88,69,54,29.88,29.71,26,10,36,0.05
2013-5-29,84.6,77.6,73.2,74.7,72.2,69.1,98,84,67,29.83,29.68,25,12,36,0.12
2013-5-30,90.3,82.0,74.7,75.0,73.5,71.8,96,77,56,29.79,29.67,20,10,30,0.00
2013-5-31,90.9,83.9,77.9,76.0,74.0,71.4,90,74,54,29.83,29.66,19,10,31,0.00
2013-6-1,90.0,81.9,78.3,75.0,72.8,65.6,85,74,57,29.95,29.71,26,8,34,6.68
2013-6-2,88.7,78.4,68.7,65.7,58.0,43.4,78,52,21,30.09,29.93,15,6,18,0.00
2013-6-3,97.2,80.4,66.7,65.6,60.8,57.6,78,54,29,30.01,29.82,14,5,17,0.00
2013-6-4,96.8,84.1,74.1,71.6,68.1,61.2,79,60,42,30.01,29.76,17,9,25,37.15
2013-6-5,96.3,85.3,76.6,73.7,70.6,68.1,84,63,43,29.94,29.75,14,6,23,0.00
2013-6-6,83.7,77.0,71.1,74.4,69.8,66.6,93,79,59,29.96,29.81,14,5,19,0.29
2013-6-7,90.3,77.9,66.0,67.2,60.4,53.1,93,60,29,30.02,29.89,14,4,19,0.00
2013-12-30,35.1,34.1,33.3,22.5,21.4,20.5,63,59,56,29.77,29.76,2,-80,2,0.00
2013-12-31,53.6,40.6,27.7,28.9,24.4,-99.9,84,55,33,30.29,29.62,9,-3,9,0.00
2014-1-1,68.2,48.4,33.4,47.5,34.9,24.6,77,61,45,30.22,29.88,17,3,17,0.00
2014-1-2,40.6,32.3,24.4,24.6,19.2,16.3,74,59,41,30.50,30.22,15,3,18,0.00